Myrtle Beach, SC

2:55 AM EST on November 23, 2017 (GMT -0500)
Myrtle Beach International

Weather History for KMYR - May, 2013

Change the Weather History Date:

Sunday, May 5, 2013

  Actual Average Record
Temperature  
Mean Temperature 64 °F -  
Max Temperature 71 °F 74 °F 91 °F (1952)
Min Temperature 57 °F 57 °F 45 °F (1997)
Degree Days  
Heating Degree Days 1    
Growing Degree Days 14 (Base 50)    
Moisture  
Dew Point 58 °F    
Average Humidity 89    
Maximum Humidity 94    
Minimum Humidity 69    
Precipitation  
Precipitation 0.04 in - - ()
Sea Level Pressure  
Sea Level Pressure 29.92 in    
Wind  
Wind Speed 16 mph (ENE)    
Max Wind Speed 20 mph    
Max Gust Speed 34 mph    
Visibility 8 miles    
Events Rain    
Averages and records for this station are not official NWS values.
T = Trace of Precipitation, MM = Missing Value Source: NWS Daily Summary

Daily Weather History Graph

Daily Weather History Graph

Search for Another Location

Airport or City:

Trip Planner

Search our weather history database for the weather conditions in past years. The results will help you decide how hot, cold, wet, or windy it might be!

Date:

Astronomy

May. 05, 2013 Rise Set
Actual Time 6:23 AM EDT 8:02 PM EDT
Civil Twilight 5:56 AM EDT 8:29 PM EDT
Nautical Twilight 5:23 AM EDT 9:01 PM EDT
Astronomical Twilight 4:49 AM EDT 9:35 PM EDT
Moon 3:40 AM EDT (5/5) 4:10 PM EDT (5/5)
Length of Visible Light 14h 32m
Length of Day
13h 39m
Waning Crescent, 18% of the Moon is Illuminated
May 5
Waning Crescent
May 9
New
May 18
First Quarter
May 25
Full
May 31
Last Quarter

Hourly Weather History & Observations

Time (EDT) Temp. Dew Point Humidity Pressure Visibility Wind Dir Wind Speed Gust Speed Precip Events Conditions
12:15 AM 59.0 °F 55.4 °F 88% 29.98 in 10.0 mi NE 18.4 mph 24.2 mph N/A   Overcast
12:35 AM 59.0 °F 55.4 °F 88% 29.98 in 10.0 mi NE 17.3 mph 24.2 mph N/A   Overcast
12:55 AM 59.0 °F 55.4 °F 88% 29.98 in 10.0 mi NE 16.1 mph 23.0 mph N/A   Overcast
1:15 AM 59.0 °F 55.4 °F 88% 29.97 in 10.0 mi NE 18.4 mph 25.3 mph N/A   Overcast
1:35 AM 59.0 °F 55.4 °F 88% 29.97 in 10.0 mi NE 16.1 mph 24.2 mph N/A   Overcast
1:55 AM 57.2 °F 55.4 °F 94% 29.95 in 10.0 mi NE 15.0 mph 23.0 mph N/A   Overcast
2:15 AM 59.0 °F 55.4 °F 88% 29.95 in 10.0 mi NE 17.3 mph 21.9 mph N/A   Overcast
2:35 AM 59.0 °F 55.4 °F 88% 29.94 in 10.0 mi NE 13.8 mph 25.3 mph N/A   Overcast
2:55 AM 59.0 °F 55.4 °F 88% 29.93 in 10.0 mi NE 18.4 mph 24.2 mph N/A   Overcast
3:15 AM 59.0 °F 55.4 °F 88% 29.92 in 10.0 mi NE 18.4 mph - N/A   Overcast
3:35 AM 57.2 °F 55.4 °F 94% 29.92 in 10.0 mi NE 15.0 mph 27.6 mph N/A   Overcast
3:55 AM 57.2 °F 55.4 °F 94% 29.92 in 10.0 mi ENE 19.6 mph - N/A   Overcast
4:15 AM 57.2 °F 55.4 °F 94% 29.92 in 10.0 mi NE 15.0 mph 23.0 mph N/A   Overcast
4:35 AM 57.2 °F 55.4 °F 94% 29.92 in 10.0 mi NE 18.4 mph 26.5 mph N/A   Overcast
4:55 AM 57.2 °F 55.4 °F 94% 29.91 in 8.0 mi NE 15.0 mph 24.2 mph N/A   Overcast
5:15 AM 57.2 °F 55.4 °F 94% 29.91 in 10.0 mi NE 13.8 mph 24.2 mph N/A   Overcast
5:35 AM 57.2 °F 55.4 °F 94% 29.91 in 7.0 mi NE 19.6 mph - N/A   Overcast
5:50 AM 57.2 °F 55.4 °F 94% 29.91 in 3.0 mi ENE 17.3 mph 24.2 mph N/A Rain Light Rain
6:15 AM 57.2 °F 55.4 °F 94% 29.92 in 1.0 mi NE 13.8 mph 23.0 mph N/A Rain Light Rain
6:45 AM 57.2 °F 55.4 °F 94% 29.93 in 5.0 mi NE 11.5 mph - N/A   Overcast
7:45 AM 57.2 °F 55.4 °F 94% 29.93 in 5.0 mi ENE 15.0 mph 23.0 mph N/A   Overcast
8:45 AM 60.8 °F 57.2 °F 88% 29.94 in 5.0 mi NE 15.0 mph 25.3 mph N/A   Overcast
10:51 AM 62.6 °F 60.8 °F 94% 29.93 in 6.0 mi East 17.3 mph 34.5 mph N/A   Overcast
12:50 PM 66.2 °F 62.6 °F 88% 29.95 in 5.0 mi East 8.1 mph 26.5 mph N/A Rain Light Rain
1:50 PM 66.2 °F 62.6 °F 88% 29.92 in 7.0 mi East 13.8 mph 24.2 mph N/A   Mostly Cloudy
2:50 PM 69.8 °F 62.6 °F 78% 29.92 in 7.0 mi ESE 13.8 mph - N/A   Mostly Cloudy
3:50 PM 71.6 °F 60.8 °F 69% 29.90 in 8.0 mi ESE 19.6 mph - N/A   Mostly Cloudy
4:50 PM 69.8 °F 60.8 °F 73% 29.88 in 10.0 mi ESE 18.4 mph - N/A   Mostly Cloudy
5:50 PM 66.2 °F 60.8 °F 83% 29.87 in 10.0 mi East 17.3 mph 24.2 mph N/A   Overcast
6:45 PM 66.2 °F 60.8 °F 83% 29.87 in 4.0 mi ESE 17.3 mph 23.0 mph N/A Rain Light Rain
9:50 PM 66.2 °F 60.8 °F 83% 29.89 in 10.0 mi ESE 11.5 mph - N/A   Overcast
10:55 PM 64.4 °F 62.6 °F 94% 29.88 in 10.0 mi East 12.7 mph 21.9 mph 0.04 in   Overcast
11:15 PM 66.2 °F 62.6 °F 88% 29.88 in 8.0 mi ESE 15.0 mph 24.2 mph N/A   Overcast
11:35 PM 66.2 °F 62.6 °F 88% 29.88 in 10.0 mi ESE 16.1 mph 21.9 mph N/A   Mostly Cloudy
11:55 PM 64.4 °F 60.8 °F 88% 29.88 in 10.0 mi ESE 13.8 mph 19.6 mph N/A   Mostly Cloudy